| time (UTC) | temp F | wind direction | speed MPH | gust MPH | rain 1hr in | rain 24hr in | rain mn in | humidity % | barometer mb |
| 20260905214324 | 73 | 20 | 0.0 | 0.0 | 0.00 | 0.00 | 0.00 | 73 | 1013.0 |
| 20260905213818 | 73 | 20 | 0.0 | 0.0 | 0.00 | 0.00 | 0.00 | 72 | 1013.0 |
| 20260905213312 | 73 | 20 | 0.0 | 3.0 | 0.00 | 0.00 | 0.00 | 71 | 1013.0 |
| 20260905212806 | 74 | 20 | 0.0 | 3.0 | 0.00 | 0.00 | 0.00 | 70 | 1012.9 |
| 20260905211755 | 74 | 267 | 0.0 | 3.0 | 0.00 | 0.00 | 0.00 | 70 | 1012.8 |
| 20260905210742 | 74 | 39 | 0.0 | 5.0 | 0.00 | 0.00 | 0.00 | 70 | 1012.8 |
| 20260905205731 | 73 | 64 | 1.0 | 5.0 | 0.00 | 0.00 | 0.00 | 72 | 1012.7 |
| 20260905205225 | 73 | 82 | 0.0 | 5.0 | 0.00 | 0.00 | 0.00 | 71 | 1012.6 |
| 20260905204719 | 73 | 70 | 0.0 | 3.0 | 0.00 | 0.00 | 0.00 | 73 | 1012.6 |
| 20260905204212 | 73 | 70 | 0.0 | 3.0 | 0.00 | 0.00 | 0.00 | 72 | 1012.6 |
| 20260905203707 | 73 | 82 | 0.0 | 2.0 | 0.00 | 0.00 | 0.00 | 73 | 1012.5 |
| 20260905203200 | 73 | 91 | 0.0 | 3.0 | 0.00 | 0.00 | 0.00 | 70 | 1012.5 |
| 20260905202655 | 73 | 78 | 0.0 | 4.0 | 0.00 | 0.00 | 0.00 | 70 | 1012.6 |
| 20260905202148 | 74 | 220 | 0.0 | 4.0 | 0.00 | 0.00 | 0.00 | 70 | 1012.5 |
| 20260905201643 | 74 | 72 | 1.0 | 4.0 | 0.00 | 0.00 | 0.00 | 69 | 1012.6 |
| 20260905200632 | 74 | 65 | 0.0 | 7.0 | 0.00 | 0.00 | 0.00 | 66 | 1012.5 |
| 20260905195619 | 75 | 214 | 0.0 | 3.0 | 0.00 | 0.00 | 0.00 | 70 | 1012.5 |
| 20260905195112 | 75 | 207 | 0.0 | 5.0 | 0.00 | 0.00 | 0.00 | 68 | 1012.5 |
| 20260905194606 | 75 | 214 | 1.0 | 5.0 | 0.00 | 0.00 | 0.00 | 68 | 1012.3 |
| 20260905194101 | 75 | 229 | 0.0 | 4.0 | 0.00 | 0.00 | 0.00 | 68 | 1012.5 |
| 20260905193556 | 75 | 121 | 0.0 | 1.0 | 0.00 | 0.00 | 0.00 | 67 | 1012.4 |
| 20260905193056 | 75 | 136 | 0.0 | 5.0 | 0.00 | 0.00 | 0.00 | 65 | 1012.5 |
| 20260905192555 | 75 | 187 | 0.0 | 5.0 | 0.00 | 0.00 | 0.00 | 66 | 1012.4 |
| 20260905192052 | 75 | 280 | 0.0 | 4.0 | 0.00 | 0.00 | 0.00 | 68 | 1012.4 |
| 20260905191552 | 75 | 207 | 0.0 | 4.0 | 0.00 | 0.00 | 0.00 | 69 | 1012.4 |
| 20260905190553 | 74 | 355 | 0.0 | 4.0 | 0.00 | 0.00 | 0.00 | 69 | 1012.4 |
| 20260905190049 | 74 | 165 | 0.0 | 4.0 | 0.00 | 0.00 | 0.00 | 67 | 1012.6 |
| 20260905185550 | 75 | 91 | 1.0 | 7.0 | 0.00 | 0.00 | 0.00 | 70 | 1012.7 |
| 20260905185050 | 75 | 207 | 1.0 | 8.0 | 0.00 | 0.00 | 0.00 | 69 | 1012.7 |
| 20260905184553 | 75 | 83 | 0.0 | 8.0 | 0.00 | 0.00 | 0.00 | 67 | 1012.6 |
| 20260905184048 | 75 | 250 | 0.0 | 4.0 | 0.00 | 0.00 | 0.00 | 68 | 1012.6 |
| 20260905183550 | 75 | 113 | 0.0 | 4.0 | 0.00 | 0.00 | 0.00 | 68 | 1012.6 |
| 20260905182543 | 76 | 181 | 0.0 | 4.0 | 0.00 | 0.00 | 0.00 | 68 | 1012.6 |
| 20260905181542 | 75 | 146 | 1.0 | 9.0 | 0.00 | 0.00 | 0.00 | 67 | 1012.8 |
| 20260905181040 | 75 | 190 | 1.0 | 9.0 | 0.00 | 0.00 | 0.00 | 66 | 1012.6 |
| 20260905180539 | 76 | 114 | 1.0 | 3.0 | 0.00 | 0.00 | 0.00 | 65 | 1012.7 |
| 20260905180040 | 76 | 139 | 0.0 | 4.0 | 0.00 | 0.00 | 0.00 | 68 | 1012.6 |
| 20260905175541 | 76 | 233 | 1.0 | 5.0 | 0.00 | 0.00 | 0.00 | 65 | 1012.7 |
| 20260905174538 | 76 | 105 | 0.0 | 4.0 | 0.00 | 0.00 | 0.00 | 65 | 1012.8 |
| 20260905174038 | 76 | 123 | 0.0 | 6.0 | 0.00 | 0.00 | 0.00 | 67 | 1012.8 |
| 20260905173538 | 76 | 111 | 0.0 | 6.0 | 0.00 | 0.00 | 0.00 | 64 | 1012.8 |
| 20260905173038 | 75 | 165 | 1.0 | 5.0 | 0.00 | 0.00 | 0.00 | 65 | 1012.9 |
| 20260905172539 | 75 | 127 | 1.0 | 4.0 | 0.00 | 0.00 | 0.00 | 68 | 1012.8 |
| 20260905172034 | 75 | 220 | 1.0 | 6.0 | 0.00 | 0.00 | 0.00 | 69 | 1012.9 |
| 20260905171534 | 75 | 99 | 1.0 | 6.0 | 0.00 | 0.00 | 0.00 | 67 | 1013.0 |
| 20260905170033 | 74 | 117 | 1.0 | 6.0 | 0.00 | 0.00 | 0.00 | 68 | 1012.9 |
| 20260905165035 | 73 | 145 | 1.0 | 6.0 | 0.00 | 0.00 | 0.00 | 70 | 1013.1 |
| 20260905164535 | 73 | 188 | 0.0 | 4.0 | 0.00 | 0.00 | 0.00 | 73 | 1013.0 |
| 20260905163534 | 73 | 132 | 1.0 | 5.0 | 0.00 | 0.00 | 0.00 | 72 | 1013.0 |
| 20260905162535 | 72 | 186 | 1.0 | 6.0 | 0.00 | 0.00 | 0.00 | 72 | 1013.1 |
| 20260905162034 | 71 | 354 | 1.0 | 6.0 | 0.00 | 0.00 | 0.00 | 72 | 1013.2 |
| 20260905161532 | 72 | 70 | 1.0 | 6.0 | 0.00 | 0.00 | 0.00 | 71 | 1013.2 |
| 20260905161030 | 72 | 72 | 1.0 | 4.0 | 0.00 | 0.00 | 0.00 | 74 | 1013.0 |
| 20260905160529 | 72 | 322 | 1.0 | 4.0 | 0.00 | 0.00 | 0.00 | 73 | 1013.1 |
| 20260905160031 | 71 | 75 | 0.0 | 3.0 | 0.00 | 0.00 | 0.00 | 76 | 1013.1 |
| 20260905155531 | 71 | 101 | 0.0 | 3.0 | 0.00 | 0.00 | 0.00 | 75 | 1013.0 |
| 20260905155028 | 71 | 131 | 1.0 | 3.0 | 0.00 | 0.00 | 0.00 | 76 | 1013.1 |
| 20260905154526 | 71 | 137 | 1.0 | 8.0 | 0.00 | 0.00 | 0.00 | 74 | 1013.0 |
| 20260905153026 | 71 | 154 | 0.0 | 5.0 | 0.00 | 0.00 | 0.00 | 77 | 1013.1 |
| 20260905152527 | 71 | 155 | 0.0 | 6.0 | 0.00 | 0.00 | 0.00 | 77 | 1013.2 |
| 20260905152024 | 71 | 82 | 1.0 | 6.0 | 0.00 | 0.00 | 0.00 | 76 | 1013.2 |
| 20260905151522 | 70 | 255 | 1.0 | 6.0 | 0.00 | 0.00 | 0.00 | 77 | 1013.3 |
| 20260905151020 | 70 | 113 | 0.0 | 4.0 | 0.00 | 0.00 | 0.00 | 80 | 1013.2 |
| 20260905150519 | 69 | 133 | 0.0 | 4.0 | 0.00 | 0.00 | 0.00 | 80 | 1013.4 |
| 20260905145513 | 69 | 96 | 0.0 | 3.0 | 0.00 | 0.00 | 0.00 | 79 | 1013.3 |
| 20260905145011 | 70 | 298 | 0.0 | 3.0 | 0.00 | 0.00 | 0.00 | 80 | 1013.3 |
| 20260905144012 | 69 | 130 | 0.0 | 3.0 | 0.00 | 0.00 | 0.00 | 81 | 1013.3 |
| 20260905143009 | 69 | 100 | 0.0 | 4.0 | 0.00 | 0.00 | 0.00 | 82 | 1013.1 |
| 20260905142508 | 69 | 83 | 1.0 | 8.0 | 0.00 | 0.00 | 0.00 | 82 | 1013.1 |
| 20260905142008 | 69 | 75 | 1.0 | 8.0 | 0.00 | 0.00 | 0.00 | 81 | 1013.0 |
| 20260905141008 | 69 | 54 | 1.0 | 9.0 | 0.00 | 0.00 | 0.00 | 82 | 1013.0 |
| 20260905140508 | 68 | 78 | 0.0 | 9.0 | 0.00 | 0.00 | 0.00 | 82 | 1013.0 |
| 20260905140008 | 0 | 0.0 | 0.0 | 0.00 | 0.00 | 0.00 | 1013.1 | ||
| 20260905134859 | 0 | 0.0 | 0.0 | 0.00 | 0.00 | 0.00 | 1013.0 | ||
| 20260905134359 | 0 | 0.0 | 0.0 | 0.00 | 0.00 | 0.00 | 1013.1 | ||
| 20260905133805 | 0 | 0.0 | 0.0 | 0.00 | 0.00 | 0.00 | 1012.9 | ||
| 20260905133300 | 0 | 0.0 | 0.0 | 0.00 | 0.00 | 0.00 | 1012.9 | ||
| 20260905132758 | 0 | 0.0 | 0.0 | 0.00 | 0.00 | 0.00 | 1013.0 | ||
| 20260905132206 | 0 | 0.0 | 0.0 | 0.00 | 0.00 | 0.00 | 1013.2 | ||
| 20260905131702 | 0 | 0.0 | 0.0 | 0.00 | 0.00 | 0.00 | 1013.0 | ||
| 20260905131200 | 0 | 0.0 | 0.0 | 0.00 | 0.00 | 0.00 | 1013.0 | ||
| 20260905130653 | 0 | 0.0 | 0.0 | 0.00 | 0.00 | 0.00 | 1013.2 | ||
| 20260905130100 | 0 | 0.0 | 0.0 | 0.00 | 0.00 | 0.00 | 1013.3 | ||
| 20260905125556 | 0 | 0.0 | 0.0 | 0.00 | 0.00 | 0.00 | 1013.3 | ||
| 20260905125004 | 0 | 0.0 | 0.0 | 0.00 | 0.00 | 0.00 | 1013.4 | ||
| 20260905124459 | 0 | 0.0 | 0.0 | 0.00 | 0.00 | 0.00 | 1013.4 | ||
| 20260905122955 | 0 | 0.0 | 0.0 | 0.00 | 0.00 | 0.00 | 1013.5 | ||
| 20260905122400 | 0 | 0.0 | 0.0 | 0.00 | 0.00 | 0.00 | 1013.5 | ||
| 20260905121804 | 0 | 0.0 | 0.0 | 0.00 | 0.00 | 0.00 | 1013.4 | ||
| 20260905121256 | 0 | 0.0 | 0.0 | 0.00 | 0.00 | 0.00 | 1013.3 | ||
| 20260905120752 | 0 | 0.0 | 0.0 | 0.00 | 0.00 | 0.00 | 1013.3 | ||
| 20260905120155 | 0 | 0.0 | 0.0 | 0.00 | 0.00 | 0.00 | 1013.4 | ||
| 20260905115603 | 0 | 0.0 | 0.0 | 0.00 | 0.00 | 0.00 | 1013.4 | ||
| 20260905115100 | 0 | 0.0 | 0.0 | 0.00 | 0.00 | 0.00 | 1013.4 | ||
| 20260905114058 | 0 | 0.0 | 0.0 | 0.00 | 0.00 | 0.00 | 1013.1 | ||
| 20260905113504 | 0 | 0.0 | 0.0 | 0.00 | 0.00 | 0.00 | 1013.0 | ||
| 20260905112457 | 0 | 0.0 | 0.0 | 0.00 | 0.00 | 0.00 | 1012.9 | ||
| 20260905111958 | 0 | 0.0 | 0.0 | 0.00 | 0.00 | 0.00 | 1012.8 | ||
| 20260905110957 | 0 | 0.0 | 0.0 | 0.00 | 0.00 | 0.00 | 1012.7 | ||
| 20260905110406 | 0 | 0.0 | 0.0 | 0.00 | 0.00 | 0.00 | 1012.8 | ||
| 20260905105902 | 0 | 0.0 | 0.0 | 0.00 | 0.00 | 0.00 | 1012.6 | ||
| 20260905105401 | 0 | 0.0 | 0.0 | 0.00 | 0.00 | 0.00 | 1012.5 | ||
| 20260905104852 | 0 | 0.0 | 0.0 | 0.00 | 0.00 | 0.00 | 1012.5 | ||
| 20260905104308 | 0 | 0.0 | 0.0 | 0.00 | 0.00 | 0.00 | 1012.3 | ||
| 20260905103803 | 0 | 0.0 | 0.0 | 0.00 | 0.00 | 0.00 | 1012.3 | ||
| 20260905103256 | 0 | 0.0 | 0.0 | 0.00 | 0.00 | 0.00 | 1012.4 | ||
| 20260905102757 | 0 | 0.0 | 0.0 | 0.00 | 0.00 | 0.00 | 1012.3 | ||
| 20260905102256 | 0 | 0.0 | 0.0 | 0.00 | 0.00 | 0.00 | 1012.2 | ||
| 20260905101754 | 0 | 0.0 | 0.0 | 0.00 | 0.00 | 0.00 | 1012.2 | ||
| 20260905101204 | 0 | 0.0 | 0.0 | 0.00 | 0.00 | 0.00 | 1012.2 | ||
| 20260905100656 | 0 | 0.0 | 0.0 | 0.00 | 0.00 | 0.00 | 1012.2 | ||
| 20260905100157 | 0 | 0.0 | 0.0 | 0.00 | 0.00 | 0.00 | 1012.2 | ||
| 20260905095603 | 0 | 0.0 | 0.0 | 0.00 | 0.00 | 0.00 | 1012.1 | ||
| 20260905095057 | 0 | 0.0 | 0.0 | 0.00 | 0.00 | 0.00 | 1012.1 | ||
| 20260905094557 | 0 | 0.0 | 0.0 | 0.00 | 0.00 | 0.00 | 1012.1 | ||
| 20260905094052 | 0 | 0.0 | 0.0 | 0.00 | 0.00 | 0.00 | 1012.0 | ||
| 20260905093551 | 0 | 0.0 | 0.0 | 0.00 | 0.00 | 0.00 | 1012.1 | ||
| 20260905093003 | 0 | 0.0 | 0.0 | 0.00 | 0.00 | 0.00 | 1012.0 | ||
| 20260905092500 | 0 | 0.0 | 0.0 | 0.00 | 0.00 | 0.00 | 1012.0 | ||
| 20260905091955 | 0 | 0.0 | 0.0 | 0.00 | 0.00 | 0.00 | 1012.1 | ||
| 20260905090858 | 0 | 0.0 | 0.0 | 0.00 | 0.00 | 0.00 | 1012.0 | ||
| 20260905090303 | 0 | 0.0 | 0.0 | 0.00 | 0.00 | 0.00 | 1011.9 | ||
| 20260905085803 | 0 | 0.0 | 0.0 | 0.00 | 0.00 | 0.00 | 1011.9 | ||
| 20260905085257 | 0 | 0.0 | 0.0 | 0.00 | 0.00 | 0.00 | 1012.1 | ||
| 20260905084705 | 0 | 0.0 | 0.0 | 0.00 | 0.00 | 0.00 | 1012.1 | ||
| 20260905084201 | 0 | 0.0 | 0.0 | 0.00 | 0.00 | 0.00 | 1012.3 | ||
| 20260905083700 | 0 | 0.0 | 0.0 | 0.00 | 0.00 | 0.00 | 1012.3 | ||
| 20260905083153 | 0 | 0.0 | 0.0 | 0.00 | 0.00 | 0.00 | 1012.2 | ||
| 20260905082557 | 0 | 0.0 | 0.0 | 0.00 | 0.00 | 0.00 | 1012.1 | ||
| 20260905082053 | 0 | 0.0 | 0.0 | 0.00 | 0.00 | 0.00 | 1012.2 | ||
| 20260905081503 | 0 | 0.0 | 0.0 | 0.00 | 0.00 | 0.00 | 1012.2 | ||
| 20260905080959 | 0 | 0.0 | 0.0 | 0.00 | 0.00 | 0.00 | 1012.2 | ||
| 20260905080459 | 0 | 0.0 | 0.0 | 0.00 | 0.00 | 0.00 | 1012.2 | ||
| 20260905075957 | 0 | 0.0 | 0.0 | 0.00 | 0.00 | 0.00 | 1012.2 | ||
| 20260905075455 | 0 | 0.0 | 0.0 | 0.00 | 0.00 | 0.00 | 1012.2 | ||
| 20260905074907 | 0 | 0.0 | 0.0 | 0.00 | 0.00 | 0.00 | 1012.1 | ||
| 20260905074406 | 0 | 0.0 | 0.0 | 0.00 | 0.00 | 0.00 | 1012.3 | ||
| 20260905073852 | 0 | 0.0 | 0.0 | 0.00 | 0.00 | 0.00 | 1012.2 | ||
| 20260905073259 | 0 | 0.0 | 0.0 | 0.00 | 0.00 | 0.00 | 1012.2 | ||
| 20260905072202 | 0 | 0.0 | 0.0 | 0.00 | 0.00 | 0.00 | 1012.1 | ||
| 20260905071643 | 0 | 0.0 | 0.0 | 0.00 | 0.00 | 0.00 | 1012.2 | ||
| 20260905071053 | 0 | 0.0 | 0.0 | 0.00 | 0.00 | 0.00 | 1012.2 | ||
| 20260905070458 | 0 | 0.0 | 0.0 | 0.00 | 0.00 | 0.00 | 1012.4 | ||
| 20260905064855 | 0 | 0.0 | 0.0 | 0.00 | 0.00 | 0.00 | 1012.4 | ||
| 20260905064259 | 0 | 0.0 | 0.0 | 0.00 | 0.00 | 0.00 | 1012.5 | ||
| 20260905063206 | 0 | 0.0 | 0.0 | 0.00 | 0.00 | 0.00 | 1012.5 | ||
| 20260905062703 | 0 | 0.0 | 0.0 | 0.00 | 0.00 | 0.00 | 1012.5 | ||
| 20260905062153 | 0 | 0.0 | 0.0 | 0.00 | 0.00 | 0.00 | 1012.5 | ||
| 20260905061652 | 0 | 0.0 | 0.0 | 0.00 | 0.00 | 0.00 | 1012.7 | ||
| 20260905061100 | 0 | 0.0 | 0.0 | 0.00 | 0.00 | 0.00 | 1012.8 | ||
| 20260905060507 | 0 | 0.0 | 0.0 | 0.00 | 0.00 | 0.00 | 1012.8 | ||
| 20260905055950 | 0 | 0.0 | 0.0 | 0.00 | 0.00 | 0.00 | 1012.8 | ||
| 20260905055357 | 0 | 0.0 | 0.0 | 0.00 | 0.00 | 0.00 | 1012.8 | ||
| 20260905054304 | 0 | 0.0 | 0.0 | 0.00 | 0.00 | 0.00 | 1013.2 | ||
| 20260905053300 | 0 | 0.0 | 0.0 | 0.00 | 0.00 | 0.00 | 1013.2 | ||
| 20260905052757 | 0 | 0.0 | 0.0 | 0.00 | 0.00 | 0.00 | 1013.2 | ||
| 20260905052256 | 0 | 0.0 | 0.0 | 0.00 | 0.00 | 0.00 | 1013.3 | ||
| 20260905051754 | 0 | 0.0 | 0.0 | 0.00 | 0.00 | 0.00 | 1013.4 | ||
| 20260905051203 | 0 | 0.0 | 0.0 | 0.00 | 0.00 | 0.00 | 1013.3 | ||
| 20260905050655 | 0 | 0.0 | 0.0 | 0.00 | 0.00 | 0.00 | 1013.3 | ||
| 20260905050155 | 0 | 0.0 | 0.0 | 0.00 | 0.00 | 0.00 | 1013.4 | ||
| 20260905045558 | 0 | 0.0 | 0.0 | 0.00 | 0.00 | 0.00 | 1013.4 | ||
| 20260905045054 | 0 | 0.0 | 0.0 | 0.00 | 0.00 | 0.00 | 1013.6 | ||
| 20260905044502 | 0 | 0.0 | 0.0 | 0.00 | 0.00 | 0.00 | 1013.5 | ||
| 20260905043958 | 0 | 0.0 | 0.0 | 0.00 | 0.00 | 0.00 | 1013.6 | ||
| 20260905043453 | 0 | 0.0 | 0.0 | 0.00 | 0.00 | 0.00 | 1013.6 | ||
| 20260905042947 | 0 | 0.0 | 0.0 | 0.00 | 0.00 | 0.00 | 1013.6 | ||
| 20260905042404 | 0 | 0.0 | 0.0 | 0.00 | 0.00 | 0.00 | 1013.5 | ||
| 20260905041855 | 0 | 0.0 | 0.0 | 0.00 | 0.00 | 0.00 | 1013.5 | ||
| 20260905041259 | 0 | 0.0 | 0.0 | 0.00 | 0.00 | 0.00 | 1013.5 | ||
| 20260905040257 | 0 | 0.0 | 0.0 | 0.00 | 0.00 | 0.00 | 1013.5 | ||
| 20260905035730 | 0 | 0.0 | 0.0 | 0.00 | 0.00 | 0.00 | 1013.6 | ||
| 20260905035201 | 0 | 0.0 | 0.0 | 0.00 | 0.00 | 0.00 | 1013.6 | ||
| 20260905034655 | 0 | 0.0 | 0.0 | 0.00 | 0.00 | 0.00 | 1013.7 | ||
| 20260905034102 | 0 | 0.0 | 0.0 | 0.00 | 0.00 | 0.00 | 1013.6 | ||
| 20260905032959 | 0 | 0.0 | 0.0 | 0.00 | 0.00 | 0.00 | 1013.4 | ||
| 20260905032402 | 0 | 0.0 | 0.0 | 0.00 | 0.00 | 0.00 | 1013.5 | ||
| 20260905031901 | 0 | 0.0 | 0.0 | 0.00 | 0.00 | 0.00 | 1013.3 | ||
| 20260905031306 | 0 | 0.0 | 0.0 | 0.00 | 0.00 | 0.00 | 1013.2 | ||
| 20260905030807 | 0 | 0.0 | 0.0 | 0.00 | 0.00 | 0.00 | 1013.3 | ||
| 20260905030259 | 0 | 0.0 | 0.0 | 0.00 | 0.00 | 0.00 | 1013.2 | ||
| 20260905025202 | 0 | 0.0 | 0.0 | 0.00 | 0.00 | 0.00 | 1013.3 | ||
| 20260905024654 | 0 | 0.0 | 0.0 | 0.00 | 0.00 | 0.00 | 1013.3 | ||
| 20260905024146 | 0 | 0.0 | 0.0 | 0.00 | 0.00 | 0.00 | 1013.1 | ||
| 20260905023556 | 0 | 0.0 | 0.0 | 0.00 | 0.00 | 0.00 | 1013.2 | ||
| 20260905023001 | 0 | 0.0 | 0.0 | 0.00 | 0.00 | 0.00 | 1013.2 | ||
| 20260905022459 | 0 | 0.0 | 0.0 | 0.00 | 0.00 | 0.00 | 1013.2 | ||
| 20260905021906 | 0 | 0.0 | 0.0 | 0.00 | 0.00 | 0.00 | 1013.2 | ||
| 20260905021357 | 0 | 0.0 | 0.0 | 0.00 | 0.00 | 0.00 | 1013.3 | ||
| 20260905020801 | 0 | 0.0 | 0.0 | 0.00 | 0.00 | 0.00 | 1013.2 | ||
| 20260905015756 | 0 | 0.0 | 0.0 | 0.00 | 0.00 | 0.00 | 1013.2 | ||
| 20260905014656 | 0 | 0.0 | 0.0 | 0.00 | 0.00 | 0.00 | 1013.3 | ||
| 20260905013610 | 0 | 0.0 | 0.0 | 0.00 | 0.00 | 0.00 | 1013.5 | ||
| 20260905013105 | 0 | 0.0 | 0.0 | 0.00 | 0.00 | 0.00 | 1013.5 | ||
| 20260905012602 | 0 | 0.0 | 0.0 | 0.00 | 0.00 | 0.00 | 1013.5 | ||
| 20260905012100 | 0 | 0.0 | 0.0 | 0.00 | 0.00 | 0.00 | 1013.5 | ||
| 20260905011600 | 0 | 0.0 | 0.0 | 0.00 | 0.00 | 0.00 | 1013.5 | ||
| 20260905011053 | 0 | 0.0 | 0.0 | 0.00 | 0.00 | 0.00 | 1013.4 | ||
| 20260905010512 | 0 | 0.0 | 0.0 | 0.00 | 0.00 | 0.00 | 1013.4 | ||
| 20260905005958 | 0 | 0.0 | 0.0 | 0.00 | 0.00 | 0.00 | 1013.4 | ||
| 20260905005456 | 0 | 0.0 | 0.0 | 0.00 | 0.00 | 0.00 | 1013.4 | ||
| 20260905004902 | 0 | 0.0 | 0.0 | 0.00 | 0.00 | 0.00 | 1013.4 | ||
| 20260905004306 | 0 | 0.0 | 0.0 | 0.00 | 0.00 | 0.00 | 1013.4 | ||
| 20260905003807 | 0 | 0.0 | 0.0 | 0.00 | 0.00 | 0.00 | 1013.3 | ||
| 20260905003300 | 0 | 0.0 | 0.0 | 0.00 | 0.00 | 0.00 | 1013.3 | ||
| 20260905002708 | 0 | 0.0 | 0.0 | 0.00 | 0.00 | 0.00 | 1013.3 | ||
| 20260905002159 | 0 | 69 | 0.0 | 0.0 | 0.00 | 0.00 | 0.00 | 1013.2 | |
| 20260905001656 | 67 | 69 | 0.0 | 0.0 | 0.00 | 0.00 | 0.00 | 91 | 1013.2 |
| 20260905001134 | 67 | 69 | 0.0 | 0.0 | 0.00 | 0.00 | 0.00 | 91 | 1013.3 |
| 20260905000635 | 67 | 69 | 0.0 | 0.0 | 0.00 | 0.00 | 0.00 | 91 | 1013.2 |
| 20260905000134 | 68 | 69 | 0.0 | 0.0 | 0.00 | 0.00 | 0.00 | 90 | 1013.2 |
| 20260904235633 | 68 | 69 | 0.0 | 0.0 | 0.00 | 0.00 | 0.00 | 90 | 1013.2 |
| 20260904235130 | 68 | 69 | 0.0 | 0.0 | 0.00 | 0.00 | 0.00 | 90 | 1013.1 |
| 20260904234629 | 68 | 69 | 0.0 | 0.0 | 0.00 | 0.00 | 0.00 | 90 | 1013.1 |
| 20260904234128 | 69 | 69 | 0.0 | 0.0 | 0.00 | 0.00 | 0.00 | 90 | 1013.1 |
| 20260904233626 | 69 | 69 | 0.0 | 0.0 | 0.00 | 0.00 | 0.00 | 90 | 1012.9 |
| 20260904232125 | 70 | 69 | 0.0 | 1.0 | 0.00 | 0.00 | 0.00 | 89 | 1013.1 |
| 20260904231625 | 70 | 69 | 0.0 | 1.0 | 0.00 | 0.00 | 0.00 | 89 | 1013.1 |
| 20260904231126 | 70 | 69 | 0.0 | 1.0 | 0.00 | 0.00 | 0.00 | 88 | 1013.2 |
| 20260904230623 | 70 | 69 | 0.0 | 1.0 | 0.00 | 0.00 | 0.00 | 88 | 1013.1 |
| 20260904230118 | 71 | 69 | 0.0 | 1.0 | 0.00 | 0.00 | 0.00 | 88 | 1013.3 |
| 20260904225617 | 71 | 69 | 0.0 | 0.0 | 0.00 | 0.00 | 0.00 | 88 | 1013.3 |
| 20260904225116 | 71 | 69 | 0.0 | 0.0 | 0.00 | 0.00 | 0.00 | 87 | 1013.2 |
| 20260904224617 | 71 | 69 | 0.0 | 1.0 | 0.00 | 0.00 | 0.00 | 87 | 1013.3 |
| 20260904224117 | 71 | 69 | 0.0 | 1.0 | 0.00 | 0.00 | 0.00 | 86 | 1013.3 |
| 20260904223617 | 71 | 69 | 0.0 | 1.0 | 0.00 | 0.00 | 0.00 | 85 | 1013.3 |
| 20260904223117 | 72 | 69 | 0.0 | 0.0 | 0.00 | 0.00 | 0.00 | 84 | 1013.3 |
| 20260904222616 | 72 | 69 | 0.0 | 0.0 | 0.00 | 0.00 | 0.00 | 83 | 1013.2 |
| 20260904222118 | 73 | 69 | 0.0 | 0.0 | 0.00 | 0.00 | 0.00 | 82 | 1013.2 |
| 20260904221617 | 73 | 69 | 0.0 | 0.0 | 0.00 | 0.00 | 0.00 | 80 | 1013.2 |
| 20260904221117 | 74 | 69 | 0.0 | 0.0 | 0.00 | 0.00 | 0.00 | 78 | 1013.2 |
| 20260904215118 | 75 | 82 | 0.0 | 1.0 | 0.00 | 0.00 | 0.00 | 75 | 1013.1 |
| 20260904214613 | 75 | 82 | 0.0 | 1.0 | 0.00 | 0.00 | 0.00 | 75 | 1013.0 |